Sparta, TN

6:45 AM CDT on March 23, 2017 (GMT -0500)
Upper Cumberland Regional

Weather History for KSRB - February, 2013

Change the Weather History Date:

Monday, February 11, 2013

  Actual Average (KCSV) Record (KCSV)
Temperature  
Mean Temperature 45 °F -  
Max Temperature 55 °F 47 °F 67 °F (1999)
Min Temperature 35 °F 26 °F 1 °F (1981)
Degree Days  
Heating Degree Days 20    
Moisture  
Dew Point 41 °F    
Average Humidity 78    
Maximum Humidity 100    
Minimum Humidity 41    
Precipitation  
Precipitation 0.00 in - - ()
Sea Level Pressure  
Sea Level Pressure 30.06 in    
Wind  
Wind Speed 6 mph (WSW)    
Max Wind Speed 12 mph    
Max Gust Speed -    
Visibility 10 miles    
Events      
Averages and records for this station are not official NWS values.
T = Trace of Precipitation, MM = Missing Value Source: NWS Daily Summary

Daily Weather History Graph

Daily Weather History Graph

Search for Another Location

Airport or City:

Trip Planner

Search our weather history database for the weather conditions in past years. The results will help you decide how hot, cold, wet, or windy it might be!

Date:

Astronomy

Feb. 11, 2013 Rise Set
Actual Time 6:33 AM CST 5:19 PM CST
Civil Twilight 6:07 AM CST 5:46 PM CST
Nautical Twilight 5:36 AM CST 6:16 PM CST
Astronomical Twilight 5:06 AM CST 6:46 PM CST
Moon 7:02 AM CST (2/11) 7:10 PM CST (2/11)
Length of Visible Light 11h 39m
Length of Day
10h 46m
Waxing Crescent, 3% of the Moon is Illuminated
Feb 11
Waxing Crescent
Feb 17
First Quarter
Feb 25
Full
Mar 4
Last Quarter
Mar 11
New

Hourly Weather History & Observations

Time (CST) Temp. Windchill Dew Point Humidity Pressure Visibility Wind Dir Wind Speed Gust Speed Precip Events Conditions
12:15 AM 53.6 °F - 53.6 °F 100% 29.94 in 10.0 mi SSE 6.9 mph - N/A   Overcast
12:35 AM 53.6 °F - 53.6 °F 100% 29.95 in 10.0 mi South 9.2 mph - N/A   Overcast
12:55 AM 53.6 °F - 53.6 °F 100% 29.95 in 10.0 mi Variable 4.6 mph - N/A   Overcast
1:15 AM 53.6 °F - 53.6 °F 100% 29.95 in 8.0 mi SSW 5.8 mph - N/A   Overcast
1:35 AM 55.4 °F - 55.4 °F 100% 29.95 in 8.0 mi SW 6.9 mph - N/A   Overcast
1:55 AM 55.4 °F - 55.4 °F 100% 29.96 in 10.0 mi SW 8.1 mph - N/A   Overcast
2:15 AM 55.4 °F - 55.4 °F 100% 29.96 in 10.0 mi SW 6.9 mph - N/A   Overcast
2:35 AM 55.4 °F - 55.4 °F 100% 29.97 in 10.0 mi SW 6.9 mph - N/A   Overcast
2:55 AM 55.4 °F - 55.4 °F 100% 29.96 in 10.0 mi SW 8.1 mph - N/A   Overcast
3:15 AM 55.4 °F - 55.4 °F 100% 29.96 in 10.0 mi SW 9.2 mph - N/A   Overcast
3:35 AM 55.4 °F - 55.4 °F 100% 29.97 in 10.0 mi WSW 9.2 mph - N/A   Overcast
3:55 AM 55.4 °F - 55.4 °F 100% 29.96 in 10.0 mi SW 9.2 mph - N/A   Overcast
4:15 AM 55.4 °F - 55.4 °F 100% 29.97 in 10.0 mi SW 8.1 mph - N/A   Overcast
4:35 AM 55.4 °F - 55.4 °F 100% 29.96 in 10.0 mi SW 6.9 mph - N/A   Mostly Cloudy
5:15 AM 55.4 °F - 55.4 °F 100% 29.99 in 10.0 mi WSW 8.1 mph - N/A   Overcast
5:55 AM 55.4 °F - 51.8 °F 88% 30.01 in 10.0 mi West 8.1 mph - N/A   Scattered Clouds
6:15 AM 55.4 °F - 51.8 °F 88% 30.02 in 10.0 mi West 6.9 mph - N/A   Partly Cloudy
6:35 AM 53.6 °F - 51.8 °F 94% 30.02 in 10.0 mi West 6.9 mph - N/A   Scattered Clouds
6:55 AM 53.6 °F - 51.8 °F 94% 30.03 in 10.0 mi WSW 5.8 mph - N/A   Scattered Clouds
7:15 AM 53.6 °F - 51.8 °F 94% 30.04 in 10.0 mi WSW 4.6 mph - N/A   Partly Cloudy
7:35 AM 53.6 °F - 50.0 °F 88% 30.05 in 10.0 mi WSW 4.6 mph - N/A   Clear
7:55 AM 53.6 °F - 48.2 °F 82% 30.05 in 10.0 mi WSW 5.8 mph - N/A   Clear
8:15 AM 53.6 °F - 46.4 °F 77% 30.05 in 10.0 mi West 8.1 mph - N/A   Clear
8:35 AM 53.6 °F - 44.6 °F 72% 30.05 in 10.0 mi WNW 8.1 mph - N/A   Clear
8:55 AM 53.6 °F - 44.6 °F 72% 30.07 in 10.0 mi West 6.9 mph - N/A   Clear
9:15 AM 53.6 °F - 42.8 °F 67% 30.08 in 10.0 mi West 10.4 mph - N/A   Clear
9:35 AM 53.6 °F - 39.2 °F 58% 30.10 in 10.0 mi West 6.9 mph - N/A   Clear
9:55 AM 53.6 °F - 39.2 °F 58% 30.10 in 10.0 mi WNW 9.2 mph - N/A   Clear
10:15 AM 53.6 °F - 37.4 °F 54% 30.10 in 10.0 mi West 11.5 mph - N/A   Clear
10:35 AM 53.6 °F - 35.6 °F 51% 30.09 in 10.0 mi West 4.6 mph - N/A   Clear
10:55 AM 53.6 °F - 37.4 °F 54% 30.08 in 10.0 mi West 5.8 mph - N/A   Clear
11:15 AM 51.8 °F - 37.4 °F 58% 30.10 in 10.0 mi West 8.1 mph - N/A   Clear
11:35 AM 51.8 °F - 35.6 °F 54% 30.11 in 10.0 mi WSW 8.1 mph - N/A   Clear
11:55 AM 51.8 °F - 35.6 °F 54% 30.11 in 10.0 mi Variable 6.9 mph - N/A   Clear
12:15 PM 51.8 °F - 33.8 °F 50% 30.11 in 10.0 mi West 6.9 mph - N/A   Clear
12:35 PM 51.8 °F - 33.8 °F 50% 30.09 in 10.0 mi WNW 9.2 mph - N/A   Clear
12:55 PM 51.8 °F - 32.0 °F 47% 30.09 in 10.0 mi WNW 8.1 mph - N/A   Clear
1:15 PM 51.8 °F - 32.0 °F 47% 30.10 in 10.0 mi NW 9.2 mph - N/A   Clear
1:35 PM 51.8 °F - 33.8 °F 50% 30.09 in 10.0 mi West 5.8 mph - N/A   Clear
1:55 PM 51.8 °F - 33.8 °F 50% 30.09 in 10.0 mi West 8.1 mph - N/A   Clear
2:15 PM 51.8 °F - 32.0 °F 47% 30.09 in 10.0 mi Variable 5.8 mph - N/A   Clear
2:35 PM 51.8 °F - 30.2 °F 44% 30.10 in 10.0 mi West 6.9 mph - N/A   Clear
2:55 PM 51.8 °F - 30.2 °F 44% 30.10 in 10.0 mi West 5.8 mph - N/A   Clear
3:15 PM 51.8 °F - 28.4 °F 41% 30.10 in 10.0 mi Variable 5.8 mph - N/A   Clear
3:35 PM 51.8 °F - 28.4 °F 41% 30.09 in 10.0 mi Calm Calm - N/A   Clear
3:55 PM 51.8 °F - 30.2 °F 44% 30.08 in 10.0 mi WNW 5.8 mph - N/A   Clear
4:55 PM 48.2 °F - 28.4 °F 46% 30.08 in 10.0 mi WNW 4.6 mph - N/A   Clear
5:15 PM 46.4 °F - 28.4 °F 50% 30.09 in 10.0 mi Calm Calm - N/A   Clear
5:35 PM 42.8 °F - 32.0 °F 66% 30.09 in 10.0 mi Calm Calm - N/A   Clear
5:55 PM 39.2 °F - 33.8 °F 81% 30.09 in 10.0 mi Calm Calm - N/A   Clear
6:15 PM 39.2 °F - 32.0 °F 75% 30.10 in 10.0 mi Calm Calm - N/A   Clear
6:35 PM 39.2 °F - 33.8 °F 81% 30.10 in 10.0 mi Calm Calm - N/A   Clear
6:55 PM 37.4 °F - 33.8 °F 87% 30.10 in 10.0 mi Calm Calm - N/A   Clear
7:15 PM 37.4 °F 34.9 °F 35.6 °F 93% 30.10 in 10.0 mi SW 3.5 mph - N/A   Clear
7:35 PM 37.4 °F - 35.6 °F 93% 30.10 in 10.0 mi Calm Calm - N/A   Clear
7:55 PM 37.4 °F - 35.6 °F 93% 30.11 in 10.0 mi Calm Calm - N/A   Clear
8:15 PM 37.4 °F - 35.6 °F 93% 30.11 in 10.0 mi Calm Calm - N/A   Clear
8:35 PM 37.4 °F - 33.8 °F 87% 30.13 in 10.0 mi Calm Calm - N/A   Clear
8:55 PM 37.4 °F - 33.8 °F 87% 30.12 in 10.0 mi Calm Calm - N/A   Clear
9:15 PM 37.4 °F - 35.6 °F 93% 30.13 in 10.0 mi Calm Calm - N/A   Clear
9:35 PM 39.2 °F - 35.6 °F 87% 30.14 in 10.0 mi Calm Calm - N/A   Clear
10:15 PM 35.6 °F - 35.6 °F 100% 30.13 in 10.0 mi Calm Calm - N/A   Clear
10:35 PM 35.6 °F 29.9 °F 35.6 °F 100% 30.11 in 10.0 mi NE 6.9 mph - N/A   Clear
10:55 PM 37.4 °F - 35.6 °F 93% 30.13 in 10.0 mi Calm Calm - N/A   Clear
11:15 PM 37.4 °F - 35.6 °F 93% 30.13 in 10.0 mi Calm Calm - N/A   Clear
11:35 PM 37.4 °F - 35.6 °F 93% 30.13 in 10.0 mi Calm Calm - N/A   Clear
11:55 PM 37.4 °F - 35.6 °F 93% 30.14 in 10.0 mi Calm Calm - N/A   Clear